Regional Weather Roundup
Issued by NWS

Home | Current Version | Previous Version | Text Only | Print | Product List | Glossary On
Versions: 1 2 3 4 5 6 7 8 9 10 11 12 13 14 15 16 17 18 19 20 21 22 23 24 25 26 27 28 29 30 31 32 33 34 35 36 37 38 39 40 41 42 43 44 45 46 47 48 49 50
000
ASUS43 KLMK 222110
RWRKY
KENTUCKY REGIONAL WEATHER ROUNDUP
NATIONAL WEATHER SERVICE LOUISVILLE KY
400 PM EST WED NOV 22 2017

NOTE "FAIR" INDICATES FEW OR NO CLOUDS BELOW 12,000 FEET
WITH NO SIGNIFICANT WEATHER AND/OR OBSTRUCTIONS TO VISIBILITY.

KYZ001>023-026-027-061>063-070>075-222200-
WESTERN AND SOUTH CENTRAL KENTUCKY

CITY           SKY/WX    TMP DP  RH WIND       PRES   REMARKS
PADUCAH        SUNNY     45  19  35 N8        30.27F
HENDERSON      SUNNY     41  22  46 NE10      30.29F
OWENSBORO      SUNNY     42  22  44 N5        30.28F
HOPKINSVILLE   SUNNY     44  24  44 NE7       30.23F
BOWLING GREEN  SUNNY     46  24  42 N7        30.25F
GLASGOW        SUNNY     45  24  43 NE7       30.23S
$$

KYZ024-025-028>034-038-045-046-053-222200-
NORTH CENTRAL KENTUCKY

CITY           SKY/WX    TMP DP  RH WIND       PRES   REMARKS
LOUISVILLE/SDF MOSUNNY   44  24  45 NE7       30.27S
LOUISVILLE/LOU SUNNY     43  24  47 VRB6      30.27F
FORT KNOX      SUNNY     42  23  46 N5        30.24S
$$

KYZ035>037-039>044-047>052-055>060-089>105-222200-
NORTHEAST KENTUCKY

CITY           SKY/WX    TMP DP  RH WIND       PRES   REMARKS
LEXINGTON      SUNNY     43  24  47 N7        30.24S
COVINGTON      MOSUNNY   38  25  59 N3        30.26S
FRANKFORT      SUNNY     43  20  39 N7        30.24S
$$

KYZ054-064>069-076>088-106>120-222200-
SOUTHEAST KENTUCKY

CITY           SKY/WX    TMP DP  RH WIND       PRES   REMARKS
JACKSON        SUNNY     43  25  49 VRB3      30.19F
LONDON         SUNNY     45  23  42 N10       30.19F
SOMERSET       SUNNY     43  27  52 N6        30.22S
MIDDLESBORO    SUNNY     47  26  43 N6        30.17S
MONTICELLO     CLEAR     45  26  47 N12G17    30.23S
$$





USA.gov is the U.S. government's official web portal to all federal, state and local government web resources and services.